Location: Newark
(7.0858°N, 171.3717°E)
Time: 06:54:24
(UTC+00:00)

Courier 1B - Pass Details

Date: 29 November 2020
Orbit: 962 x 1209 km, 28.3° (Epoch: 20 January)

Event Time Altitude Azimuth Distance (km) Brightness Sun altitude
Rises 13:46:41 0° 316° (NW) 3,866 - -65.1°
Reaches altitude 10° 13:50:39 10° 336° (NNW) 2,963 - -64.3°
Maximum altitude 13:54:59 16° 13° (NNE) 2,569 - -63.5°
Drops below altitude 10° 13:59:27 10° 50° (NE) 3,065 - -62.6°
Sets 14:03:39 0° 70° (ENE) 4,064 - -61.7°
